STARLETTE 1 07646U 75010A 26255.13121700 -.00000121 00000+0 17567-4 0 9995 2 07646 49.8232 121.4128 0205649 350.2735 9.4206 13.82351591606565 LAGEOS 1 1 08820U 76039A 26254.68314497 -.00000010 00000+0 00000+0 0 9994 2 08820 109.8164 208.9362 0044605 283.7274 106.8454 6.38664823918665 AJISAI (EGS) 1 16908U 86061A 26255.29927082 -.00000112 00000+0 10053-3 0 9990 2 16908 50.0073 239.5288 0011309 42.1276 165.6422 12.44517374491237 COSMOS 1989 (ETALON 1) 1 19751U 89001C 26255.19707034 -.00000002 00000+0 00000+0 0 9993 2 19751 65.0010 69.2225 0023394 217.3816 275.3510 2.13155993293221 COSMOS 2024 (ETALON 2) 1 20026U 89039C 26255.26764823 -.00000038 00000+0 00000+0 0 9997 2 20026 64.8771 307.5316 0020878 212.1442 147.5273 2.13204634290354 LAGEOS 2 1 22195U 92070B 26233.39763817 -.00000009 00000+0 00000+0 0 9995 2 22195 52.6389 225.4441 0138024 215.8902 299.2308 6.47294115799648 STELLA 1 22824U 93061B 26255.31521123 -.00000020 00000+0 10105-4 0 9998 2 22824 98.7640 319.8426 0006145 353.5807 51.5838 14.27472368717205 LARETS 1 27944U 03042F 26255.26465007 .00000004 00000+0 10415-4 0 9993 2 27944 98.4260 59.3500 0013313 121.7520 238.4980 14.63881002226106 LARES 1 38077U 12006A 26255.24662612 -.00000016 00000+0 14069-3 0 9993 2 38077 69.4908 143.5456 0010735 309.3246 50.6829 12.54932243667996 LARES-2 1 53105U 22080A 26252.21907213 .00000013 00000+0 00000+0 0 9990 2 53105 70.1483 276.5005 0005550 317.5287 42.5066 6.38965241097038